Date String (YYYY-MM-DD hh:mm:ss) UTC,Instrument flags,absolute air pressure of the measurement (hPa),sample flow rate (lpm),inlet stack bypass flow (lpm),air temperature of the measurement (°C),ambient temperature measured by the external sensor (°C),aerosol sample conditioner tube jacket temperature (°C),OPC LED temperature (°C),internal box temperature (°C),relative humidity of the measurement (%),span deviation,mass concentration of particles derived from Lorenz-Mie calculation of OPC scattering (μg/m³),mass concentration of particles derived from Lorenz-Mie calculation of OPC scattering (μg/m³),mass concentration of particles derived from Lorenz-Mie calculation of OPC scattering (μg/m³)
DateTimeUTC,F1_M11,P_M11,Q1_M11,Q2_M11,T1_M11,T2_M11,T3_M11,T4_M11,T5_M11,U1_M11,ZSPAN_M11,X2_M11,X0_M11,X1_M11
2024-01-06 14:00:00,SystemResetWarning,0824.2,5.01,000.00,018.7,017.5,000.0,027.2,020.0,11.2,0000.0,0002.82,0005.08,0002.46
2024-01-06 14:01:00,SystemResetWarning,0824.3,5.01,000.00,018.7,017.5,000.0,027.2,020.0,11.1,0000.0,0002.81,0005.15,0002.47
2024-01-06 14:02:00,SystemResetWarning,0824.3,5.01,000.00,018.7,017.5,000.0,027.2,020.0,11.1,0000.0,0002.82,0005.57,0002.48
2024-01-06 14:03:00,SystemResetWarning,0824.3,5.00,000.00,018.7,017.4,000.0,027.2,020.0,11.1,0000.0,0002.83,0005.58,0002.47
2024-01-06 14:04:00,SystemResetWarning,0824.3,5.01,000.00,018.7,017.4,000.0,027.2,020.0,11.0,0000.0,0002.83,0005.55,0002.45
2024-01-06 14:05:00,SystemResetWarning,0824.3,5.00,000.00,018.7,017.4,000.0,027.2,020.0,11.0,0000.0,0002.82,0006.56,0002.44
2024-01-06 14:06:00,SystemResetWarning,0824.4,5.00,000.00,018.6,017.4,000.0,027.2,020.0,11.0,0000.0,0002.84,0006.36,0002.43
2024-01-06 14:07:00,SystemResetWarning,0824.3,5.00,000.00,018.6,017.3,000.0,027.2,020.0,11.0,0000.0,0002.78,0005.69,0002.39
2024-01-06 14:08:00,SystemResetWarning,0824.4,5.00,000.00,018.6,017.3,000.0,027.2,020.0,11.0,0000.0,0002.75,0006.72,0002.38
2024-01-06 14:09:00,SystemResetWarning,0824.4,5.00,000.00,018.6,017.3,000.0,027.2,020.0,10.9,0000.0,0002.76,0007.01,0002.36
2024-01-06 14:10:00,SystemResetWarning,0824.3,5.01,000.00,018.7,017.4,000.0,027.2,020.2,10.9,0000.0,0002.74,0007.13,0002.33
2024-01-06 14:11:00,SystemResetWarning,0824.3,5.00,000.00,018.8,018.2,000.0,027.1,020.6,10.9,0000.0,0002.72,0007.13,0002.33
2024-01-06 14:12:00,SystemResetWarning,0824.4,4.99,000.00,018.9,018.6,000.0,027.1,020.6,10.8,0000.0,0002.72,0007.15,0002.32
2024-01-06 14:13:00,SystemResetWarning,0824.4,4.99,000.00,018.9,018.6,000.0,027.1,020.3,10.8,0000.0,0002.73,0006.24,0002.31
2024-01-06 14:14:00,SystemResetWarning,0824.3,5.01,000.00,018.9,018.5,000.0,027.1,020.1,10.9,0000.0,0002.73,0006.18,0002.31
2024-01-06 14:15:00,SystemResetWarning,0824.4,5.01,000.00,018.8,018.4,000.0,027.1,020.0,10.9,0000.0,0002.72,0006.29,0002.32
2024-01-06 14:16:00,SystemResetWarning,0824.4,5.00,000.00,018.8,018.2,000.0,027.1,020.0,11.0,0000.0,0002.73,0005.84,0002.33
2024-01-06 14:17:00,SystemResetWarning,0824.4,5.00,000.00,018.8,018.1,000.0,027.1,020.0,11.0,0000.0,0002.71,0005.79,0002.35
2024-01-06 14:18:00,SystemResetWarning,0824.3,5.00,000.00,018.8,018.0,000.0,027.1,020.0,11.0,0000.0,0002.73,0005.72,0002.38
2024-01-06 14:19:00,SystemResetWarning,0824.3,5.01,000.00,018.7,017.9,000.0,027.1,020.0,11.0,0000.0,0002.78,0004.64,0002.41
2024-01-06 14:20:00,SystemResetWarning,0824.4,5.00,000.00,018.7,017.8,000.0,027.2,020.0,11.1,0000.0,0002.82,0004.74,0002.44
2024-01-06 14:21:00,SystemResetWarning,0824.4,5.00,000.00,018.7,017.8,000.0,027.2,020.0,11.1,0000.0,0002.82,0004.60,0002.47
2024-01-06 14:22:00,SystemResetWarning,0824.4,5.00,000.00,018.7,017.7,000.0,027.2,020.0,11.2,0000.0,0002.83,0004.75,0002.47
2024-01-06 14:23:00,SystemResetWarning,0824.4,5.00,000.00,018.7,017.7,000.0,027.2,020.0,11.2,0000.0,0002.84,0004.97,0002.48
2024-01-06 14:24:00,SystemResetWarning,0824.4,4.99,000.00,018.7,017.6,000.0,027.2,020.0,11.3,0000.0,0002.81,0004.90,0002.47
2024-01-06 14:25:00,SystemResetWarning,0824.4,5.01,000.00,018.7,017.5,000.0,027.2,020.0,11.3,0000.0,0002.77,0004.73,0002.47
2024-01-06 14:26:00,SystemResetWarning,0824.4,5.01,000.00,018.7,017.5,000.0,027.2,020.0,11.3,0000.0,0002.72,0004.51,0002.46
2024-01-06 14:27:00,SystemResetWarning,0824.4,5.00,000.00,018.7,017.5,000.0,027.2,020.0,11.2,0000.0,0002.70,0004.15,0002.45
2024-01-06 14:28:00,SystemResetWarning,0824.4,5.00,000.00,018.7,017.5,000.0,027.2,020.0,11.2,0000.0,0002.66,0003.76,0002.42
2024-01-06 14:29:00,SystemResetWarning,0824.4,4.99,000.00,018.7,017.5,000.0,027.2,020.0,11.2,0000.0,0002.65,0003.79,0002.40
2024-01-06 14:30:00,SystemResetWarning,0824.5,5.00,000.00,018.7,017.5,000.0,027.2,020.0,11.1,0000.0,0002.63,0003.77,0002.37
2024-01-06 14:31:00,SystemResetWarning,0824.5,5.00,000.00,018.6,017.6,000.0,027.2,020.0,11.1,0000.0,0002.58,0003.61,0002.35
2024-01-06 14:32:00,SystemResetWarning,0824.5,5.01,000.00,018.6,017.6,000.0,027.2,020.0,11.1,0000.0,0002.55,0003.48,0002.34
2024-01-06 14:33:00,SystemResetWarning,0824.5,5.01,000.00,018.6,017.6,000.0,027.1,020.1,11.1,0000.0,0002.52,0003.35,0002.32
2024-01-06 14:34:00,SystemResetWarning,0824.5,5.01,000.00,018.7,018.0,000.0,027.1,020.4,11.1,0000.0,0002.50,0002.99,0002.31
2024-01-06 14:35:00,SystemResetWarning,0824.5,5.00,000.00,018.9,018.7,000.0,027.1,020.7,11.0,0000.0,0002.52,0003.67,0002.33
2024-01-06 14:36:00,SystemResetWarning,0824.5,4.99,000.00,018.9,018.8,000.0,027.1,020.5,11.0,0000.0,0002.58,0004.00,0002.36
2024-01-06 14:37:00,SystemResetWarning,0824.4,4.99,000.00,018.9,018.7,000.0,027.1,020.2,11.0,0000.0,0002.66,0004.14,0002.40
2024-01-06 14:38:00,SystemResetWarning,0824.4,4.99,000.00,018.9,018.6,000.0,027.1,020.1,11.1,0000.0,0002.73,0004.29,0002.44
2024-01-06 14:39:00,SystemResetWarning,0824.4,5.01,000.00,018.9,018.5,000.0,027.1,020.0,11.1,0000.0,0002.78,0004.37,0002.49
2024-01-06 14:40:00,SystemResetWarning,0824.4,5.02,000.00,018.8,018.4,000.0,027.1,020.0,11.2,0000.0,0002.86,0004.60,0002.56
2024-01-06 14:41:00,SystemResetWarning,0824.4,5.00,000.00,018.8,018.3,000.0,027.1,020.0,11.3,0000.0,0002.87,0004.59,0002.60
2024-01-06 14:42:00,SystemResetWarning,0824.4,5.00,000.00,018.8,018.2,000.0,027.1,020.0,11.3,0000.0,0002.94,0004.70,0002.65
2024-01-06 14:43:00,SystemResetWarning,0824.4,4.99,000.00,018.8,018.1,000.0,027.1,020.0,11.4,0000.0,0003.01,0004.91,0002.69
2024-01-06 14:44:00,SystemResetWarning,0824.4,4.99,000.00,018.7,018.1,000.0,027.1,020.0,11.5,0000.0,0003.05,0004.99,0002.72
2024-01-06 14:45:00,SystemResetWarning,0824.4,5.00,000.00,018.7,018.0,000.0,027.1,020.0,11.6,0000.0,0003.06,0005.02,0002.74
2024-01-06 14:46:00,SystemResetWarning,0824.5,5.00,000.00,018.7,017.9,000.0,027.1,020.0,11.7,0000.0,0003.08,0004.55,0002.75
2024-01-06 14:47:00,SystemResetWarning,0824.4,5.00,000.00,018.7,017.8,000.0,027.2,020.0,11.9,0000.0,0003.01,0004.06,0002.72
2024-01-06 14:48:00,SystemResetWarning,0824.4,5.01,000.00,018.7,017.8,000.0,027.2,020.0,12.0,0000.0,0002.96,0003.95,0002.69
2024-01-06 14:49:00,SystemResetWarning,0824.4,4.99,000.00,018.7,017.7,000.0,027.2,020.0,12.2,0000.0,0002.94,0003.89,0002.69
2024-01-06 14:50:00,SystemResetWarning,0824.5,5.00,000.00,018.7,017.7,000.0,027.2,020.0,12.4,0000.0,0002.96,0003.91,0002.69
2024-01-06 14:51:00,SystemResetWarning,0824.6,5.00,000.00,018.7,017.7,000.0,027.2,020.0,12.5,0000.0,0002.95,0003.77,0002.68
2024-01-06 14:52:00,SystemResetWarning,0824.5,5.00,000.00,018.7,017.7,000.0,027.2,020.0,12.6,0000.0,0002.96,0003.73,0002.67
2024-01-06 14:53:00,SystemResetWarning,0824.5,4.99,000.00,018.7,017.7,000.0,027.2,020.0,12.7,0000.0,0002.95,0003.78,0002.67
2024-01-06 14:54:00,SystemResetWarning,0824.5,4.99,000.00,018.7,017.6,000.0,027.2,020.0,12.8,0000.0,0002.93,0003.99,0002.66
2024-01-06 14:55:00,SystemResetWarning,0824.6,5.00,000.00,018.7,017.6,000.0,027.2,020.0,12.9,0000.0,0002.94,0004.04,0002.68
2024-01-06 14:56:00,SystemResetWarning,0824.5,5.00,000.00,018.7,017.6,000.0,027.1,020.0,12.9,0000.0,0002.97,0004.09,0002.71
2024-01-06 14:57:00,SystemResetWarning,0824.5,5.01,000.00,018.7,017.5,000.0,027.2,020.0,12.8,0000.0,0003.04,0004.17,0002.75
2024-01-06 14:58:00,SystemResetWarning,0824.4,5.01,000.00,018.7,017.5,000.0,027.2,020.0,12.8,0000.0,0003.10,0004.23,0002.83
2024-01-06 14:59:00,SystemResetWarning,0824.4,4.99,000.00,018.7,017.5,000.0,027.2,020.0,12.8,0000.0,0003.14,0005.23,0002.89
